This demonstration page uses our WeatherBlox Daily Observations layout. Learn more.

Left ArrowRight Arrow

Hourly Observations for October 24, 2016

Temp ( °F °C ) Dew Point ( °F °C ) Humidity (%) Winds ( mph kmh ) Pressure ( in mb ) Visibility ( mi km ) Precip ( " mm )
12:53 am 00:53 Clear 38 3.3 36 2.2 93 93 ENE 9 15 30.08 1019 10 16 0.00 0.00
1:53 am 01:53 Clear 37 2.8 35 1.7 93 93 Calm 30.08 1019 10 16 0.00 0.00
2:53 am 02:53 Clear 35 1.7 34 1.1 96 96 Calm 30.09 1019 10 16 0.00 0.00
3:53 am 03:53 Clear 33 0.6 32 0 96 96 Calm 30.08 1019 10 16 0.00 0.00
4:53 am 04:53 Clear 31 -0.6 31 -0.6 100 100 Calm 30.08 1019 10 16 0.00 0.00
5:53 am 05:53 Clear 31 -0.6 30 -1.1 96 96 Calm 30.09 1019 10 16 0.00 0.00
6:53 am 06:53 Clear 32 0 31 -0.6 96 96 E 3 6 30.09 1019 10 16 0.00 0.00
7:53 am 07:53 Clear 34 1.1 33 0.6 97 97 E 8 13 30.08 1019 10 16 0.00 0.00
8:53 am 08:53 Sunny 35 1.7 33 0.6 93 93 E 9 15 30.08 1019 10 16 0.00 0.00
9:53 am 09:53 Sunny 38 3.3 36 2.2 93 93 ESE 6 9 30.07 1018 10 16 0.00 0.00
10:53 am 10:53 Sunny 43 6.1 37 2.8 80 80 Calm 30.05 1018 10 16 0.00 0.00
11:53 am 11:53 Sunny 44 6.7 38 3.3 79 79 WSW 6 9 30.06 1018 10 16 0.00 0.00
12:53 pm 12:53 Sunny 49 9.4 38 3.3 66 66 Calm 30.03 1017 10 16 0.00 0.00
1:53 pm 13:53 Sunny 51 10.6 38 3.3 61 61 Calm 29.99 1016 10 16 0.00 0.00
2:53 pm 14:53 Sunny 55 12.8 41 5 59 59 E 3 6 29.96 1015 10 16 0.00 0.00
3:53 pm 15:53 Sunny 58 14.4 42 5.6 56 56 ENE 7 11 29.95 1014 10 16 0.00 0.00
4:53 pm 16:53 Sunny 58 14.4 43 6.1 58 58 ENE 3 6 29.96 1015 10 16 0.00 0.00
5:53 pm 17:53 Sunny 54 12.2 42 5.6 64 64 E 5 7 29.96 1015 10 16 0.00 0.00
6:53 pm 18:53 Clear 51 10.6 41 5 69 69 ENE 8 13 29.96 1014 10 16 0.00 0.00
7:53 pm 19:53 Clear 49 9.4 41 5 74 74 ENE 9 15 29.96 1015 10 16 0.00 0.00
8:53 pm 20:53 Cloudy 48 8.9 41 5 77 77 E 5 7 29.96 1015 10 16 0.00 0.00
9:53 pm 21:53 Partly Cloudy 45 7.2 41 5 86 86 Calm 29.95 1014 10 16 0.00 0.00
10:53 pm 22:53 Clear 39 3.9 38 3.3 96 96 WSW 6 9 29.96 1015 10 16 0.00 0.00
11:53 pm 23:53 Clear 39 3.9 38 3.3 96 96 Calm 29.94 1014 10 16 0.00 0.00

Powered by AerisWeather